QPF
0.00 0.00 0.00 0.00 0.00 0.00 0.00 0.00 0.00 0.00 0.00 0.00 0.00 0.00 0.00 0.00 0.00 0.00 0.00 0.00 0.00 0.00 0.00 0.00 0.00 0.00 0.00 0.00 0.00 0.00 0.00 0.00 0.00 0.00 0.00 0.00 0.00 0.00 0.00 0.00 0.00 0.00 0.00
0.00 0.00 0.00 0.00 0.00 0.00 0.00 0.00 0.00 0.00 0.00 0.00 0.00 0.00 0.00 0.00 0.00 0.00 0.00 0.00 0.00 0.00 0.00 0.00 0.00 0.00 0.00 0.00 0.00 0.00 0.00 0.00 0.00 0.00 0.00 0.00 0.00 0.00 0.00 0.00 0.00 0.00 0.00
0.00 0.00 0.00 0.00 0.00 0.00 0.00 0.00 0.00 0.00 0.00 0.00 0.00 0.00 0.00 0.00 0.00 0.00 0.00 0.00 0.00 0.00 0.00 0.00 0.00 0.00 0.00 0.00 0.00 0.00 0.00 0.00 0.00 0.00 0.00 0.00 0.00 0.00 0.00 0.00 0.00 0.00 0.00
0.00 0.00 0.00 0.00 0.00 0.00 0.00 0.00 0.00 0.00 0.00 0.00 0.00 0.00 0.00 0.00 0.00 0.00 0.00 0.00 0.00 0.00 0.00 0.00 0.00 0.00 0.00 0.00 0.00 0.00 0.00 0.00 0.00 0.00 0.00 0.00 0.00 0.00 0.00 0.00 0.00 0.00 0.00
0.00 0.00 0.00 0.00 0.00 0.00 0.00 0.00 0.00 0.00 0.00 0.00 0.00 0.00 0.00 0.00 0.00 0.00 0.00 0.00 0.00 0.00 0.00 0.00 0.00 0.00 0.00 0.00 0.00 0.00 0.00 0.00 0.00 0.00 0.00 0.00 0.00 0.00 0.00 0.00 0.00 0.00 0.00
0.00 0.00 0.00 0.00 0.00 0.00 0.00 0.00 0.00 0.00 0.00 0.00 0.00 0.00 0.00 0.00 0.00 0.00 0.00 0.00 0.00 0.00 0.00 0.00 0.00 0.00 0.00 0.00 0.00 0.00 0.00 0.00 0.00 0.00 0.00 0.00 0.00 0.00 0.00 0.00 0.00 0.00 0.00
0.00 0.00 0.00 0.00 0.00 0.00 0.00 0.00 0.00 0.00 0.00 0.00 0.00 0.00 0.00 0.00 0.00 0.00 0.00 0.00 0.00 0.00 0.00 0.00 0.00 0.00 0.00 0.00 0.00 0.00 0.00 0.00 0.00 0.00 0.00 0.00 0.00 0.00 0.00 0.00 0.00 0.00 0.00
0.00 0.00 0.00 0.00 0.00 0.00 0.00 0.00 0.00 0.00 0.00 0.00 0.00 0.00 0.00 0.00 0.00 0.00 0.00 0.00 0.00 0.00 0.00 0.00 0.00 0.00 0.00 0.00 0.00 0.00 0.00 0.00 0.00 0.00 0.00 0.00 0.00 0.00 0.00 0.00 0.00 0.00 0.00
0.00 0.00 0.00 0.00 0.00 0.00 0.00 0.00 0.00 0.00 0.00 0.00 0.00 0.00 0.00 0.00 0.00 0.00 0.00 0.00 0.00 0.00 0.00 0.00 0.00 0.00 0.00 0.00 0.00 0.00 0.00 0.00 0.00 0.00 0.00 0.00 0.00 0.00 0.00 0.00 0.00 0.00 0.00
0.00 0.00 0.00 0.00 0.00 0.00 0.00 0.00 0.00 0.00 0.00 0.00 0.00 0.00 0.00 0.00 0.00 0.00 0.00 0.00 0.00 0.00 0.00 0.00 0.00 0.00 0.00 0.00 0.00 0.00 0.00 0.00 0.00 0.00 0.00 0.00 0.00 0.00 0.00 0.00 0.00 0.00 0.00
0.00 0.00 0.00 0.00 0.00 0.00 0.00 0.00 0.00 0.00 0.00 0.00 0.00 0.00 0.00 0.00 0.00 0.00 0.00 0.00 0.00 0.00 0.00 0.00 0.00 0.00 0.00 0.00 0.00 0.00 0.00 0.00 0.00 0.00 0.00 0.00 0.00 0.00 0.00 0.00 0.00 0.00 0.00
0.00 0.00 0.00 0.00 0.00 0.00 0.00 0.00 0.00 0.00 0.00 0.00 0.00 0.00 0.00 0.00 0.00 0.00 0.00 0.00 0.00 0.00 0.00 0.00 0.00 0.00 0.00 0.00 0.00 0.00 0.00 0.00 0.00 0.00 0.00 0.00 0.00 0.00 0.00 0.00 0.00 0.00 0.00
0.00 0.00 0.00 0.00 0.00 0.00 0.00 0.00 0.00 0.00 0.00 0.00 0.00 0.00 0.00 0.00 0.00 0.00 0.00 0.00 0.00 0.00 0.00 0.00 0.00 0.00 0.00 0.00 0.00 0.00 0.00 0.00 0.00 0.00 0.00 0.00 0.00 0.00 0.00 0.00 0.00 0.00 0.00
0.00 0.00 0.00 0.00 0.00 0.00 0.00 0.00 0.00 0.00 0.00 0.00 0.00 0.00 0.00 0.00 0.00 0.00 0.00 0.00 0.00 0.00 0.00 0.00 0.00 0.00 0.00 0.00 0.00 0.00 0.00 0.00 0.00 0.00 0.00 0.00 0.00 0.00 0.00 0.00 0.01 0.01 0.01
0.00 0.00 0.00 0.00 0.00 0.00 0.00 0.00 0.00 0.00 0.00 0.00 0.00 0.00 0.00 0.00 0.00 0.00 0.00 0.00 0.00 0.00 0.00 0.00 0.00 0.00 0.00 0.00 0.00 0.00 0.00 0.00 0.00 0.00 0.00 0.00 0.01 0.01 0.01 0.01 0.01 0.01 0.02
0.00 0.00 0.00 0.00 0.00 0.00 0.00 0.00 0.00 0.00 0.00 0.00 0.00 0.00 0.00 0.00 0.00 0.00 0.00 0.00 0.00 0.00 0.00 0.00 0.00 0.00 0.00 0.00 0.01 0.01 0.01 0.01 0.01 0.01 0.01 0.01 0.01 0.01 0.02 0.03 0.04 0.04 0.05
0.00 0.00 0.00 0.00 0.00 0.00 0.00 0.00 0.00 0.00 0.00 0.00 0.00 0.00 0.00 0.00 0.00 0.00 0.00 0.00 0.00 0.00 0.00 0.00 0.00 0.00 0.00 0.00 0.01 0.01 0.02 0.01 0.01 0.01 0.01 0.01 0.01 0.02 0.02 0.02 0.03 0.04 0.05
0.00 0.00 0.00 0.00 0.00 0.00 0.00 0.00 0.00 0.00 0.00 0.00 0.00 0.00 0.00 0.00 0.00 0.00 0.00 0.00 0.00 0.00 0.00 0.00 0.00 0.00 0.00 0.00 0.01 0.02 0.02 0.01 0.01 0.01 0.01 0.01 0.02 0.02 0.02 0.03 0.02 0.02 0.02
0.00 0.00 0.00 0.00 0.00 0.00 0.00 0.00 0.00 0.00 0.00 0.00 0.00 0.00 0.00 0.00 0.00 0.00 0.00 0.00 0.00 0.00 0.00 0.00 0.00 0.00 0.00 0.00 0.01 0.02 0.02 0.02 0.01 0.01 0.01 0.02 0.02 0.02 0.03 0.04 0.04 0.02 0.02
0.00 0.00 0.00 0.00 0.00 0.00 0.00 0.00 0.00 0.00 0.00 0.00 0.00 0.00 0.00 0.00 0.00 0.00 0.00 0.00 0.00 0.00 0.00 0.00 0.00 0.00 0.00 0.00 0.01 0.02 0.02 0.02 0.02 0.02 0.02 0.02 0.03 0.03 0.04 0.05 0.05 0.04 0.02
0.00 0.00 0.00 0.00 0.00 0.00 0.00 0.00 0.00 0.00 0.00 0.00 0.00 0.00 0.00 0.00 0.00 0.00 0.00 0.00 0.00 0.00 0.00 0.00 0.00 0.00 0.00 0.01 0.01 0.02 0.03 0.03 0.04 0.03 0.03 0.02 0.03 0.03 0.04 0.05 0.05 0.04 0.03
0.00 0.00 0.00 0.00 0.00 0.00 0.00 0.00 0.00 0.00 0.00 0.00 0.00 0.00 0.00 0.00 0.00 0.00 0.00 0.00 0.00 0.00 0.00 0.00 0.00 0.00 0.00 0.01 0.01 0.02 0.03 0.03 0.04 0.03 0.02 0.01 0.02 0.03 0.04 0.04 0.04 0.05 0.05
0.00 0.00 0.00 0.00 0.00 0.00 0.00 0.00 0.00 0.00 0.00 0.00 0.00 0.00 0.00 0.00 0.00 0.00 0.01 0.01 0.00 0.01 0.01 0.01 0.01 0.00 0.00 0.00 0.01 0.01 0.02 0.02 0.03 0.02 0.02 0.03 0.03 0.03 0.03 0.03 0.04 0.05 0.05
0.00 0.00 0.00 0.00 0.00 0.00 0.00 0.00 0.00 0.00 0.00 0.00 0.00 0.00 0.00 0.00 0.00 0.00 0.01 0.01 0.01 0.01 0.01 0.01 0.01 0.01 0.01 0.01 0.01 0.01 0.02 0.02 0.02 0.02 0.02 0.02 0.02 0.02 0.02 0.02 0.02 0.03 0.04
0.00 0.00 0.00 0.00 0.00 0.00 0.00 0.00 0.00 0.00 0.00 0.00 0.00 0.00 0.00 0.00 0.00 0.00 0.00 0.01 0.01 0.01 0.03 0.03 0.03 0.03 0.02 0.02 0.03 0.03 0.03 0.03 0.03 0.03 0.03 0.02 0.02 0.02 0.01 0.01 0.01 0.01 0.02
0.00 0.00 0.00 0.00 0.00 0.00 0.00 0.00 0.00 0.00 0.00 0.00 0.00 0.00 0.00 0.00 0.00 0.01 0.00 0.00 0.01 0.01 0.01 0.01 0.02 0.02 0.02 0.02 0.03 0.03 0.03 0.03 0.03 0.04 0.03 0.02 0.02 0.02 0.02 0.02 0.01 0.01 0.01
MSLP
1019.26 1019.29 1019.32 1019.36 1019.40 1019.45 1019.52 1019.61 1019.71 1019.80 1019.89 1019.96 1020.01 1020.05 1020.06 1020.06 1020.05 1020.03 1020.01 1019.97 1019.94 1019.90 1019.86 1019.83 1019.80 1019.79 1019.78 1019.78 1019.76 1019.71 1019.60 1019.43 1019.19 1018.88 1018.52 1018.13 1017.76 1017.42 1017.16 1017.00 1016.93 1016.94 1017.01
1019.93 1020.00 1020.06 1020.09 1020.11 1020.11 1020.12 1020.13 1020.14 1020.15 1020.16 1020.16 1020.14 1020.10 1020.04 1019.97 1019.89 1019.80 1019.70 1019.60 1019.51 1019.42 1019.33 1019.26 1019.20 1019.15 1019.11 1019.07 1019.02 1018.95 1018.82 1018.63 1018.37 1018.04 1017.66 1017.24 1016.82 1016.42 1016.09 1015.85 1015.71 1015.66 1015.69
1020.56 1020.67 1020.75 1020.78 1020.77 1020.74 1020.70 1020.65 1020.60 1020.55 1020.49 1020.42 1020.33 1020.23 1020.09 1019.95 1019.78 1019.61 1019.43 1019.26 1019.10 1018.94 1018.79 1018.66 1018.54 1018.43 1018.35 1018.26 1018.17 1018.07 1017.93 1017.75 1017.50 1017.19 1016.82 1016.40 1015.97 1015.55 1015.17 1014.86 1014.63 1014.51 1014.47
1021.15 1021.29 1021.38 1021.40 1021.38 1021.33 1021.25 1021.16 1021.07 1020.98 1020.87 1020.74 1020.59 1020.41 1020.20 1019.97 1019.71 1019.45 1019.19 1018.94 1018.69 1018.46 1018.24 1018.03 1017.84 1017.67 1017.51 1017.36 1017.23 1017.09 1016.95 1016.78 1016.56 1016.30 1015.98 1015.62 1015.22 1014.80 1014.40 1014.03 1013.74 1013.52 1013.39
1021.71 1021.87 1021.95 1021.97 1021.93 1021.85 1021.75 1021.64 1021.53 1021.40 1021.25 1021.08 1020.87 1020.62 1020.33 1020.01 1019.67 1019.31 1018.96 1018.62 1018.29 1017.98 1017.68 1017.40 1017.13 1016.87 1016.63 1016.42 1016.23 1016.05 1015.90 1015.74 1015.58 1015.38 1015.14 1014.85 1014.51 1014.14 1013.74 1013.35 1012.98 1012.67 1012.44
1022.24 1022.40 1022.47 1022.46 1022.40 1022.31 1022.19 1022.07 1021.93 1021.78 1021.61 1021.39 1021.13 1020.82 1020.45 1020.04 1019.61 1019.17 1018.73 1018.31 1017.91 1017.53 1017.16 1016.80 1016.45 1016.11 1015.78 1015.49 1015.22 1015.00 1014.82 1014.67 1014.55 1014.42 1014.26 1014.06 1013.81 1013.49 1013.12 1012.72 1012.32 1011.93 1011.60
1022.73 1022.86 1022.90 1022.87 1022.79 1022.67 1022.54 1022.40 1022.25 1022.09 1021.89 1021.64 1021.33 1020.96 1020.52 1020.04 1019.53 1019.01 1018.51 1018.02 1017.56 1017.12 1016.69 1016.27 1015.84 1015.42 1015.01 1014.62 1014.27 1013.98 1013.76 1013.59 1013.48 1013.40 1013.32 1013.21 1013.04 1012.80 1012.48 1012.10 1011.68 1011.24 1010.83
1023.14 1023.24 1023.24 1023.17 1023.05 1022.91 1022.76 1022.61 1022.46 1022.28 1022.07 1021.80 1021.45 1021.03 1020.54 1019.99 1019.42 1018.85 1018.29 1017.75 1017.25 1016.77 1016.30 1015.83 1015.34 1014.84 1014.35 1013.86 1013.42 1013.04 1012.74 1012.53 1012.41 1012.34 1012.30 1012.26 1012.17 1012.00 1011.75 1011.41 1011.00 1010.55 1010.10
1023.44 1023.50 1023.46 1023.35 1023.19 1023.02 1022.86 1022.70 1022.54 1022.36 1022.13 1021.84 1021.47 1021.02 1020.49 1019.90 1019.29 1018.67 1018.07 1017.51 1016.98 1016.48 1015.98 1015.47 1014.94 1014.37 1013.79 1013.21 1012.67 1012.18 1011.79 1011.51 1011.33 1011.25 1011.22 1011.21 1011.17 1011.08 1010.89 1010.61 1010.24 1009.81 1009.36
1023.63 1023.64 1023.55 1023.40 1023.21 1023.01 1022.83 1022.66 1022.50 1022.32 1022.09 1021.80 1021.41 1020.94 1020.39 1019.77 1019.13 1018.49 1017.87 1017.29 1016.74 1016.22 1015.71 1015.17 1014.59 1013.97 1013.32 1012.65 1012.00 1011.41 1010.92 1010.54 1010.29 1010.15 1010.10 1010.09 1010.08 1010.04 1009.91 1009.69 1009.39 1009.00 1008.59
1023.67 1023.64 1023.52 1023.33 1023.11 1022.90 1022.71 1022.54 1022.37 1022.20 1021.97 1021.68 1021.29 1020.81 1020.24 1019.61 1018.95 1018.29 1017.65 1017.05 1016.49 1015.96 1015.42 1014.86 1014.25 1013.59 1012.88 1012.14 1011.40 1010.71 1010.11 1009.63 1009.29 1009.08 1008.98 1008.95 1008.94 1008.92 1008.84 1008.69 1008.44 1008.13 1007.78
1023.60 1023.55 1023.40 1023.19 1022.96 1022.73 1022.53 1022.36 1022.20 1022.03 1021.81 1021.51 1021.13 1020.64 1020.06 1019.42 1018.74 1018.06 1017.40 1016.78 1016.20 1015.64 1015.08 1014.49 1013.86 1013.16 1012.41 1011.62 1010.82 1010.06 1009.37 1008.81 1008.38 1008.09 1007.93 1007.85 1007.82 1007.80 1007.75 1007.63 1007.45 1007.20 1006.91
1023.45 1023.39 1023.23 1023.02 1022.78 1022.55 1022.35 1022.18 1022.02 1021.84 1021.62 1021.32 1020.93 1020.43 1019.85 1019.19 1018.49 1017.78 1017.09 1016.44 1015.82 1015.23 1014.64 1014.03 1013.37 1012.65 1011.87 1011.06 1010.23 1009.43 1008.70 1008.07 1007.58 1007.22 1006.99 1006.85 1006.78 1006.73 1006.67 1006.56 1006.41 1006.21 1005.98
1023.27 1023.22 1023.07 1022.86 1022.62 1022.39 1022.19 1022.01 1021.84 1021.65 1021.41 1021.10 1020.69 1020.18 1019.58 1018.90 1018.17 1017.44 1016.71 1016.02 1015.35 1014.72 1014.09 1013.45 1012.77 1012.05 1011.27 1010.46 1009.63 1008.83 1008.09 1007.44 1006.90 1006.49 1006.19 1005.99 1005.85 1005.75 1005.64 1005.52 1005.36 1005.18 1004.97
1023.09 1023.06 1022.92 1022.72 1022.49 1022.26 1022.04 1021.84 1021.65 1021.43 1021.16 1020.82 1020.39 1019.86 1019.24 1018.54 1017.79 1017.02 1016.26 1015.52 1014.81 1014.13 1013.46 1012.79 1012.10 1011.38 1010.62 1009.84 1009.04 1008.27 1007.55 1006.90 1006.35 1005.90 1005.54 1005.27 1005.05 1004.87 1004.69 1004.50 1004.30 1004.08 1003.87
1022.94 1022.92 1022.79 1022.60 1022.37 1022.13 1021.89 1021.66 1021.42 1021.16 1020.85 1020.48 1020.02 1019.47 1018.82 1018.11 1017.34 1016.54 1015.75 1014.97 1014.23 1013.50 1012.80 1012.11 1011.41 1010.70 1009.97 1009.23 1008.48 1007.76 1007.07 1006.45 1005.90 1005.42 1005.02 1004.67 1004.36 1004.07 1003.79 1003.51 1003.22 1002.94 1002.68
1022.80 1022.78 1022.66 1022.46 1022.22 1021.95 1021.68 1021.41 1021.12 1020.81 1020.46 1020.04 1019.55 1018.97 1018.32 1017.59 1016.82 1016.02 1015.21 1014.41 1013.64 1012.89 1012.17 1011.46 1010.77 1010.07 1009.37 1008.67 1007.97 1007.30 1006.66 1006.07 1005.52 1005.02 1004.57 1004.15 1003.74 1003.34 1002.94 1002.54 1002.14 1001.76 1001.42
1022.64 1022.61 1022.47 1022.26 1021.99 1021.70 1021.39 1021.06 1020.72 1020.36 1019.96 1019.50 1018.98 1018.39 1017.74 1017.02 1016.26 1015.47 1014.67 1013.88 1013.10 1012.35 1011.61 1010.91 1010.21 1009.53 1008.85 1008.19 1007.54 1006.91 1006.30 1005.72 1005.18 1004.66 1004.15 1003.66 1003.16 1002.65 1002.13 1001.60 1001.08 1000.59 1000.15
1022.43 1022.36 1022.19 1021.95 1021.66 1021.33 1020.97 1020.61 1020.22 1019.81 1019.37 1018.88 1018.34 1017.75 1017.11 1016.41 1015.68 1014.92 1014.15 1013.38 1012.62 1011.88 1011.15 1010.45 1009.76 1009.09 1008.43 1007.79 1007.17 1006.56 1005.97 1005.40 1004.84 1004.29 1003.74 1003.17 1002.59 1001.99 1001.36 1000.73 1000.10 999.51 998.98
1022.13 1022.00 1021.80 1021.52 1021.19 1020.83 1020.45 1020.05 1019.63 1019.19 1018.72 1018.21 1017.67 1017.09 1016.46 1015.79 1015.10 1014.38 1013.65 1012.92 1012.19 1011.47 1010.77 1010.08 1009.41 1008.75 1008.10 1007.47 1006.85 1006.24 1005.65 1005.07 1004.49 1003.91 1003.31 1002.70 1002.05 1001.38 1000.68 999.98 999.28 998.61 997.99
1021.72 1021.54 1021.28 1020.97 1020.62 1020.24 1019.84 1019.43 1018.99 1018.54 1018.06 1017.55 1017.01 1016.43 1015.83 1015.19 1014.52 1013.84 1013.15 1012.46 1011.77 1011.09 1010.42 1009.75 1009.10 1008.45 1007.81 1007.18 1006.56 1005.95 1005.34 1004.74 1004.14 1003.53 1002.90 1002.25 1001.58 1000.88 1000.15 999.41 998.67 997.96 997.30
1021.23 1020.97 1020.67 1020.33 1019.97 1019.59 1019.19 1018.78 1018.36 1017.91 1017.43 1016.93 1016.39 1015.82 1015.22 1014.60 1013.96 1013.30 1012.64 1011.98 1011.33 1010.68 1010.04 1009.41 1008.78 1008.16 1007.53 1006.91 1006.29 1005.67 1005.05 1004.43 1003.81 1003.18 1002.54 1001.89 1001.21 1000.52 999.80 999.07 998.34 997.62 996.94
1020.66 1020.35 1020.01 1019.65 1019.29 1018.92 1018.55 1018.16 1017.76 1017.33 1016.87 1016.37 1015.83 1015.26 1014.66 1014.03 1013.39 1012.73 1012.08 1011.44 1010.82 1010.20 1009.60 1009.00 1008.41 1007.82 1007.23 1006.62 1006.02 1005.40 1004.78 1004.16 1003.54 1002.91 1002.28 1001.64 1001.00 1000.34 999.67 998.98 998.29 997.60 996.93
1020.07 1019.70 1019.33 1018.97 1018.62 1018.27 1017.93 1017.59 1017.22 1016.81 1016.37 1015.87 1015.33 1014.75 1014.12 1013.46 1012.79 1012.12 1011.47 1010.83 1010.21 1009.62 1009.05 1008.50 1007.96 1007.42 1006.87 1006.32 1005.75 1005.16 1004.56 1003.95 1003.35 1002.74 1002.13 1001.54 1000.94 1000.34 999.74 999.12 998.49 997.85 997.20
1019.47 1019.06 1018.67 1018.31 1017.97 1017.66 1017.35 1017.04 1016.71 1016.33 1015.91 1015.41 1014.86 1014.24 1013.58 1012.89 1012.18 1011.47 1010.78 1010.13 1009.51 1008.94 1008.41 1007.91 1007.43 1006.96 1006.48 1005.99 1005.47 1004.94 1004.38 1003.81 1003.24 1002.67 1002.10 1001.55 1001.02 1000.49 999.96 999.42 998.86 998.27 997.66
1018.88 1018.44 1018.04 1017.67 1017.35 1017.06 1016.78 1016.51 1016.20 1015.85 1015.43 1014.94 1014.37 1013.73 1013.03 1012.29 1011.53 1010.78 1010.06 1009.38 1008.76 1008.21 1007.71 1007.26 1006.84 1006.44 1006.04 1005.63 1005.19 1004.73 1004.23 1003.72 1003.19 1002.66 1002.15 1001.65 1001.17 1000.70 1000.23 999.76 999.26 998.73 998.14
Thickness
5665 5663 5663 5662 5660 5657 5654 5650 5646 5642 5637 5633 5629 5625 5622 5619 5617 5613 5611 5607 5604 5601 5597 5595 5593 5590 5587 5585 5582 5580 5577 5575 5571 5569 5574 5580 5581 5583 5582 5579 5578 5578 5577
5659 5656 5655 5653 5651 5648 5645 5642 5638 5634 5630 5626 5622 5619 5616 5614 5612 5608 5605 5602 5599 5596 5592 5589 5587 5584 5581 5579 5575 5572 5569 5567 5562 5559 5563 5574 5583 5587 5581 5576 5573 5572 5570
5652 5649 5646 5644 5642 5638 5635 5632 5629 5626 5622 5618 5615 5611 5609 5606 5605 5602 5599 5596 5593 5590 5586 5583 5580 5578 5575 5573 5569 5564 5560 5558 5555 5549 5547 5553 5569 5575 5577 5570 5565 5563 5561
5644 5640 5638 5634 5631 5627 5624 5623 5620 5617 5614 5610 5608 5606 5603 5602 5600 5596 5593 5590 5586 5583 5579 5576 5573 5570 5567 5565 5561 5556 5552 5547 5545 5542 5538 5536 5540 5540 5555 5561 5555 5552 5550
5636 5632 5628 5625 5622 5618 5616 5614 5612 5609 5605 5602 5599 5597 5595 5593 5591 5588 5586 5583 5580 5576 5571 5567 5564 5561 5558 5555 5552 5547 5543 5538 5534 5530 5528 5524 5519 5517 5518 5534 5540 5540 5540
5629 5625 5620 5618 5614 5611 5608 5606 5604 5600 5597 5594 5591 5588 5586 5584 5582 5580 5578 5575 5572 5568 5563 5558 5554 5551 5548 5544 5540 5536 5531 5526 5522 5518 5513 5509 5508 5507 5504 5509 5517 5520 5524
5623 5619 5614 5611 5607 5603 5600 5597 5595 5592 5588 5585 5582 5579 5576 5573 5572 5570 5567 5565 5562 5559 5554 5549 5544 5540 5536 5531 5526 5522 5518 5513 5508 5503 5499 5495 5493 5489 5486 5487 5495 5499 5505
5617 5612 5607 5603 5599 5595 5592 5589 5586 5582 5579 5576 5573 5570 5566 5563 5561 5557 5554 5552 5549 5546 5541 5536 5531 5527 5522 5517 5511 5507 5502 5497 5492 5488 5482 5478 5475 5470 5467 5465 5465 5471 5482
5609 5604 5600 5595 5591 5587 5583 5579 5576 5573 5569 5565 5562 5559 5556 5552 5548 5545 5541 5538 5535 5531 5526 5521 5517 5512 5506 5500 5494 5490 5486 5480 5476 5471 5466 5461 5458 5452 5449 5445 5442 5440 5449
5602 5597 5592 5587 5582 5577 5573 5569 5566 5562 5558 5554 5551 5546 5543 5540 5535 5532 5528 5524 5520 5515 5510 5505 5500 5495 5489 5482 5476 5472 5468 5462 5458 5452 5447 5444 5439 5434 5430 5426 5423 5420 5420
5595 5589 5584 5578 5573 5568 5564 5560 5556 5552 5548 5544 5540 5536 5532 5527 5522 5518 5514 5509 5504 5499 5494 5488 5483 5477 5471 5465 5459 5455 5450 5445 5441 5435 5430 5427 5421 5416 5413 5409 5406 5404 5401
5586 5580 5575 5569 5565 5559 5555 5550 5546 5541 5537 5532 5527 5523 5518 5513 5509 5505 5499 5493 5488 5483 5477 5471 5465 5460 5454 5448 5442 5438 5432 5427 5424 5419 5413 5410 5404 5400 5396 5392 5391 5389 5387
5576 5571 5566 5560 5555 5550 5545 5540 5535 5530 5525 5519 5515 5511 5506 5501 5496 5490 5484 5478 5472 5467 5460 5454 5449 5444 5438 5432 5425 5420 5415 5411 5407 5402 5397 5394 5388 5386 5382 5379 5378 5377 5375
5567 5561 5556 5551 5545 5539 5534 5529 5524 5518 5512 5507 5502 5497 5492 5486 5481 5475 5469 5463 5457 5451 5445 5439 5433 5428 5422 5416 5409 5403 5398 5395 5391 5387 5383 5380 5376 5373 5370 5368 5367 5365 5364
5556 5550 5545 5541 5535 5529 5524 5518 5512 5506 5499 5494 5489 5484 5478 5472 5466 5460 5454 5448 5442 5435 5429 5424 5419 5413 5407 5401 5393 5387 5383 5381 5379 5377 5374 5371 5368 5365 5362 5360 5358 5356 5355
5547 5540 5534 5529 5524 5518 5512 5505 5500 5493 5487 5481 5476 5470 5464 5458 5452 5446 5440 5433 5427 5422 5416 5410 5405 5400 5393 5387 5380 5373 5372 5371 5370 5369 5367 5365 5362 5360 5357 5357 5356 5353 5350
5536 5529 5523 5518 5511 5505 5498 5492 5486 5480 5474 5468 5462 5457 5451 5445 5438 5432 5425 5420 5414 5409 5403 5397 5391 5387 5382 5374 5369 5364 5361 5362 5362 5361 5359 5358 5356 5354 5352 5351 5351 5350 5350
5525 5518 5512 5505 5499 5492 5485 5479 5473 5467 5461 5455 5450 5444 5437 5431 5424 5417 5411 5406 5400 5395 5390 5384 5378 5373 5370 5363 5359 5355 5353 5354 5354 5352 5351 5349 5349 5347 5345 5344 5343 5343 5343
5513 5506 5499 5493 5486 5480 5473 5467 5461 5455 5450 5444 5438 5430 5423 5417 5410 5403 5397 5391 5386 5382 5376 5371 5365 5362 5359 5354 5350 5346 5346 5347 5347 5346 5344 5342 5341 5341 5339 5337 5337 5339 5339
5500 5493 5486 5480 5474 5468 5461 5454 5449 5444 5439 5432 5424 5416 5408 5401 5396 5390 5384 5378 5372 5368 5363 5359 5354 5350 5348 5345 5341 5339 5338 5340 5340 5341 5339 5337 5336 5336 5334 5332 5332 5333 5334
5487 5480 5474 5468 5462 5455 5448 5442 5437 5432 5426 5418 5410 5402 5394 5387 5382 5376 5371 5365 5360 5355 5352 5348 5345 5341 5339 5337 5335 5332 5331 5331 5332 5333 5333 5332 5331 5330 5330 5329 5328 5329 5329
5475 5468 5462 5456 5449 5442 5435 5431 5426 5420 5412 5405 5398 5390 5383 5375 5368 5363 5359 5352 5347 5343 5341 5338 5336 5334 5331 5329 5328 5326 5325 5325 5325 5327 5328 5327 5326 5326 5326 5326 5326 5325 5324
5463 5456 5450 5444 5437 5430 5423 5417 5413 5405 5398 5391 5385 5378 5371 5363 5356 5350 5346 5341 5335 5331 5329 5327 5327 5327 5325 5323 5322 5321 5321 5320 5320 5321 5321 5322 5322 5321 5322 5322 5321 5320 5318
5450 5443 5437 5431 5426 5419 5411 5404 5398 5391 5384 5378 5372 5365 5359 5353 5346 5339 5333 5328 5324 5321 5318 5318 5319 5320 5319 5318 5317 5316 5316 5316 5316 5316 5317 5317 5317 5316 5315 5315 5315 5313 5312
5437 5430 5423 5418 5412 5406 5400 5392 5384 5376 5370 5365 5359 5352 5345 5339 5335 5330 5324 5318 5315 5310 5309 5310 5310 5310 5313 5313 5311 5310 5311 5311 5311 5311 5312 5313 5312 5312 5311 5310 5309 5308 5306
5424 5417 5411 5405 5400 5394 5388 5380 5371 5362 5356 5351 5345 5339 5332 5327 5322 5320 5319 5315 5310 5309 5306 5305 5304 5305 5306 5307 5307 5307 5307 5307 5307 5306 5307 5307 5307 5305 5305 5304 5303 5302 5301